OBJECT X (43779 NORAD) Tracking and Keplerian Element Data

This shows tracking and keplerian element data for the satellite.

Feedback or suggestion? Click here.




ElementValue
Catalog43779
NameOBJECT X
Epoch Orbit662
Epoch Day17.19824111
Epoch Year2019
RAAN90.915
Inclination97.7644
Eccentricity0.0016118
Argument of Perigee112.3101
Mean Anonmoly247.983
Mean Motion14.94853944
Decay Rate1.64E-06
L11 43779U 18099X 19017.19824111 .00000164 00000-0 20373-4 0 9992
L22 43779 97.7644 90.9150 0016118 112.3101 247.9830 14.94853944 6627

Live tracking and technical data element details for OBJECT X (NORAD 43779). OBJECT X can be tracked NOW for your location showing map with azimuth and elevation plus other details from your city location.

Track the satellite on the map from your city or location and see movement details for azimuth, elevation, latitude, longitude, range, height, and movement on the map or in text.







IsCatalogInMostPopularTable: catalog: 43779, numindb: 16
Update: records affected: 1



GetName: 43779 OBJECT X

Hit Count: updated at: Fri, 18 Jan 2019 22:29:38 GMT